#timestamp,LO_Frequency,Hit,StdDev 
1577710815.3,286046996.2,N
1577710835.1,286046996.7,N
1577710855.9,286046997.8,N
1577710875.7,286046997.7,N
1577710895.5,286046995.2,N
1577710915.4,286046993.9,N
1577710935.2,286046996.4,N
1577710955.1,286046993.7,N
1577710956.0,286046993.7,N
1577710975.8,286046994.1,N
1577710995.6,286046994.0,N
1577711015.5,286046993.6,N
1577711035.3,286046991.9,Y
1577711055.2,286046995.0,P
1577711075.9,286046997.4,P
1577711095.7,286046997.9,N
1577711115.6,286046996.8,N
1577711135.4,286046996.7,Y
1577711155.2,286046999.9,P
1577711175.1,286046999.8,N
1577711176.0,286046999.8,N
1577711195.8,286047002.2,N
1577711215.7,286047000.1,N
1577711235.5,286047000.8,N
1577711255.3,286047001.0,N
1577711275.2,286046999.8,N
1577711295.9,286047001.9,N
1577711315.7,286047001.5,N
1577711335.6,286047001.8,N
1577711355.4,286047001.6,N
1577711375.3,286047001.5,N
1577711395.1,286047002.1,N
1577711396.0,286047002.1,N
1577711415.8,286047001.3,N
1577711435.7,286047001.5,N
1577711455.5,286047001.5,N
1577711475.3,286047005.9,Y
1577711495.2,286047002.8,P
1577711515.0,286047001.9,N
1577711515.9,286047001.9,N
1577711535.8,286046999.7,N
1577711555.6,286047004.4,Y
1577711575.4,286047002.8,P
1577711595.3,286047000.1,N
1577711615.1,286047002.4,N
1577711635.8,286047002.7,N
1577711655.7,286047001.0,N
1577711675.5,286047000.9,N
1577711695.4,286047000.6,N
1577711715.2,286047000.7,N
1577711735.0,286047000.2,N
1577711735.9,286047000.2,N
1577711755.8,286047002.6,N
1577711775.6,286047002.6,N
1577711795.4,286046998.6,N
1577711815.3,286046998.2,N
1577711835.1,286046996.6,N
1577711855.9,286046998.4,N
1577711875.7,286046997.3,N
1577711895.5,286046997.8,N
1577711915.4,286046996.7,N
1577711935.2,286046997.1,N
1577711955.0,286046998.8,N
1577711956.0,286046998.8,N
1577711975.8,286047001.1,N
1577711995.6,286046998.5,N
1577712015.5,286046999.6,N
1577712035.3,286046999.1,N
1577712055.1,286046999.3,N
1577712075.9,286046996.9,N
1577712095.7,286046999.1,N
1577712115.5,286046997.8,N
1577712135.4,286046997.3,N
1577712155.2,286046996.7,N
1577712175.1,286047000.5,N
1577712176.0,286047000.5,N
1577712195.8,286046999.1,N
1577712215.6,286047000.8,N
1577712235.5,286046998.6,N
1577712255.3,286046999.0,N
1577712275.2,286047001.1,N
1577712295.9,286046998.1,N
1577712315.7,286047001.1,N
1577712335.6,286047000.8,N
1577712355.4,286046998.8,N
1577712375.2,286046997.1,N
1577712395.1,286046995.0,Y
1577712396.0,286046995.0,P
1577712415.8,286046995.0,N
1577712435.7,286046996.9,N
1577712455.5,286046999.4,N
1577712475.3,286046997.4,N
1577712495.2,286046997.4,N
1577712515.9,286046996.6,N
1577712535.7,286046997.3,N
1577712555.6,286046997.1,N
1577712575.4,286047000.3,N
1577712595.2,286046998.6,N
1577712615.1,286046999.4,N
1577712616.0,286046999.4,N
1577712635.8,286046996.5,N
1577712655.7,286046996.8,N
1577712675.5,286046996.7,N
1577712695.3,286046995.6,N
1577712715.2,286046994.3,Y
1577712735.0,286046997.8,P
1577712735.9,286046997.8,P
1577712755.8,286046998.9,P
1577712775.6,286047000.5,N
1577712795.4,286047000.6,N
1577712815.3,286046998.7,N
1577712835.1,286046998.6,N
1577712855.8,286046999.5,N
1577712875.7,286046996.5,Y
1577712895.5,286046998.7,P
1577712915.4,286046999.4,P
1577712935.2,286046998.4,P
1577712955.0,286047001.1,N
1577712955.9,286047001.1,N
1577712975.8,286046999.9,N
1577712995.6,286047000.3,N
1577713015.4,286046998.2,N
1577713035.3,286047002.7,N
1577713055.1,286047001.1,N
1577713075.9,286046998.5,N
1577713095.7,286046998.5,N
1577713115.5,286046996.5,N
1577713135.4,286046999.4,N
1577713155.2,286046998.1,N
1577713175.0,286046996.5,N
1577713175.9,286046996.5,N
1577713195.8,286046999.4,N
1577713215.6,286047001.2,N
1577713235.5,286047001.2,N
1577713255.3,286046998.2,N
1577713275.1,286046998.6,N
1577713295.9,286046998.9,N
1577713315.7,286046998.4,N
1577713335.5,286047000.9,N
1577713355.4,286047002.5,N
1577713375.2,286046999.7,N
1577713395.1,286046999.8,N
1577713396.0,286046999.8,N
1577713415.8,286046999.9,N
1577713435.6,286047002.6,N
1577713455.5,286047002.3,N
1577713475.3,286047002.1,N
1577713495.1,286046999.7,N
1577713515.9,286047002.6,N
1577713535.7,286047002.3,N
1577713555.6,286047002.5,N
1577713575.4,286046999.7,N
1577713595.2,286047000.6,N
1577713615.1,286046999.9,N
1577713616.0,286046999.9,N
1577713635.8,286047002.3,N
1577713655.6,286046999.9,N
1577713675.5,286047000.3,N
1577713695.3,286047002.0,N
1577713715.2,286047001.5,N
1577713735.9,286047001.3,N
1577713755.7,286047001.3,N
1577713775.6,286047004.3,Y
1577713795.4,286047001.6,P
1577713815.3,286047001.5,P
1577713835.1,286046999.7,N
1577713836.0,286046999.7,N
1577713855.8,286046999.8,N
1577713875.7,286046999.8,N
1577713895.5,286046998.8,N
1577713915.4,286046999.3,N
1577713935.2,286046998.8,N
1577713955.0,286046997.1,Y
1577713955.9,286046997.1,P
1577713975.8,286047001.0,N
1577713995.6,286047002.6,N
1577714015.4,286047000.6,N
1577714035.3,286046999.8,N
1577714055.1,286047002.3,N
1577714075.9,286047001.7,N
1577714095.7,286047000.1,N
1577714115.5,286046999.7,N
1577714135.4,286046998.8,N
1577714155.2,286046999.2,N
1577714175.0,286046998.5,N
1577714175.9,286046998.5,N
1577714195.8,286047000.5,N
1577714215.6,286047002.7,N
1577714235.5,286047001.0,N
1577714255.3,286046998.1,N
1577714275.1,286047000.6,N
1577714295.9,286047001.2,N
1577714315.7,286047000.7,N
1577714335.5,286047000.8,N
1577714355.4,286046998.4,N
1577714375.2,286046998.1,N
1577714395.1,286047000.7,N
1577714396.0,286047000.7,N
